Вернуться в каталог

CHECKMATE 2

АктивенВоенныеPO
NORAD 56167·PAYLOAD·🇺🇸 United States

Запущен Apr 2, 2023 с Vandenberg Space Force Base

Loading…

Ближайшие Пролёты (ближайшие 24 часа)

TLE

СвежийSource: Space-Track

Эпоха: Sep 14, 2026, 06:25 UTC

1 56167U 23050F   26257.26796005  .00000094  00000-0  73108-4 0  9998
2 56167  81.0084 346.2547 0007918  79.2724 280.9324 13.85173512174449

Отслеживайте CHECKMATE 2 в реальном времени с AllMySat

Download on the App Store